Regional Weather Roundup
Issued by NWS

Home | Current Version | Previous Version | Graphics & Text | Print | Product List | Glossary On
Versions: 1 2 3 4 5 6 7 8 9 10 11 12 13 14 15 16 17 18 19 20 21 22 23 24 25 26 27 28 29 30 31 32 33 34 35 36 37 38 39 40 41 42 43 44 45 46 47 48 49 50
000
ASUS45 KPSR 201610
RWRAZ

ARIZONA HOURLY REGIONAL WEATHER ROUNDUP
NATIONAL WEATHER SERVICE PHOENIX AZ
900 AM MST WED SEP 20 2017

NOTE: FAIR INDICATES FEW OR NO CLOUDS BELOW 12,000 FEET WITH NO
SIGNIFICANT WEATHER AND/OR OBSTRUCTIONS TO VISIBILITY.

AZZ001>003-036-201700-
NORTHWEST ARIZONA

CITY           SKY/WX    TMP DP  RH WIND       PRES   REMARKS
BULLHEAD CITY  SUNNY     79  45  29 SW7       29.79R
KINGMAN        SUNNY     76  36  23 CALM      29.93R
$$

AZZ004>008-015-016-018-201700-
NORTH CENTRAL ARIZONA

CITY           SKY/WX    TMP DP  RH WIND       PRES   REMARKS
GRAND CANYON   SUNNY     62  35  36 S15G26    30.13R
WILLIAMS       SUNNY     64  36  34 S12       30.14R
PRESCOTT       SUNNY     67  31  26 SE12      30.06R
FLAGSTAFF      SUNNY     58  31  35 SW17      30.17R
PAYSON           N/A     66  34  30 VRB5      30.12R
PAGE           SUNNY     73  38  27 CALM      29.95R
$$

AZZ009>014-017-201700-
NORTHEAST ARIZONA

CITY           SKY/WX    TMP DP  RH WIND       PRES   REMARKS
WINSLOW        SUNNY     71  26  18 E6        30.06R
SAINT JOHNS    SUNNY     63  32  31 VRB3      30.12R
WINDOW ROCK    SUNNY     65  22  19 S6        30.16R
SHOW LOW       SUNNY     64  25  22 S22G33    30.17R
$$

AZZ540-542>544-546-548-201700-
GREATER PHOENIX AREA

CITY           SKY/WX    TMP DP  RH WIND       PRES   REMARKS
PHOENIX        SUNNY     82  56  40 SE12      29.86R
BUCKEYE        SUNNY     82  39  21 E13       29.85R
GLENDALE       SUNNY     81  45  28 CALM      29.88R
LUKE AFB       SUNNY     80  44  27 CALM      29.86R
SCOTTSDALE     SUNNY     83  53  35 SE8       29.90R
MESA-FALCON    SUNNY     84  55  37 SE10      29.89R
MESA-GATEWAY   SUNNY     82  55  39 E9        29.90R
CHANDLER       SUNNY     82  55  39 E8        29.88R
$$

AZZ539-553-201700-
SOUTHWEST MARICOPA COUNTY AND PINAL COUNTY

CITY           SKY/WX    TMP DP  RH WIND       PRES   REMARKS
CASA GRANDE    NOT AVBL
GILA BEND      SUNNY     84  48  28 SE3       29.82R
$$

AZZ503-504-507>509-201700-
SOUTHEAST ARIZONA

CITY           SKY/WX    TMP DP  RH WIND       PRES   REMARKS
TUCSON         SUNNY     82  60  47 S5        29.99R
DAVIS-MONTHAN  SUNNY     83  60  44 S7        29.98R
RYAN FIELD     SUNNY     84  63  48 SE10      29.96R
NOGALES        SUNNY     77  63  61 S13       30.07R
SIERRA VISTA   SUNNY     75  55  49 N7        30.12R
DOUGLAS        SUNNY     77  62  59 S7        30.10R
SAFFORD        SUNNY     80  40  23 CALM      30.00R
$$

AZZ532-201700-
SOUTHWEST ARIZONA

CITY           SKY/WX    TMP DP  RH WIND       PRES   REMARKS
YUMA           SUNNY     83  59  44 VRB5      29.78R
$$

CAZ041-043-047-048-061-525>527-560>570-201700-
SOUTHERN CALIFORNIA

CITY           SKY/WX    TMP DP  RH WIND       PRES   REMARKS
DOWNTOWN L.A.  MOSUNNY   71  60  68 E5        29.90R
L.A. AIRPORT   PTSUNNY   70  61  73 E3        29.90R
SAN DIEGO      CLOUDY    69  58  67 S12       29.94R
BURBANK        MOSUNNY   66  58  75 S5        29.91R
ONTARIO        CLOUDY    66  57  72 W7        29.92R
RIVERSIDE      CLOUDY    66  60  81 W3        29.92R
PALM SPRINGS   SUNNY     79  54  41 NW13      29.81R
EL CENTRO NAS  SUNNY     80  42  25 N5        29.79R
IMPERIAL       SUNNY     79  48  33 N3        29.77R
BLYTHE         SUNNY     79  48  33 CALM      29.79R
NEEDLES        SUNNY     85  44  23 E7        29.80R
$$

NVZ020-UTZ003-201700-
SOUTHERN NEVADA-UTAH

CITY           SKY/WX    TMP DP  RH WIND       PRES   REMARKS
LAS VEGAS      SUNNY     76  42  29 VRB3      29.82R
SALT LAKE CITY MOSUNNY   58  39  49 SE14      29.92S
$$

NMZ009-TXZ055-201700-
NEW MEXICO-WEST TEXAS

CITY           SKY/WX    TMP DP  RH WIND       PRES   REMARKS
ALBUQUERQUE    MOSUNNY   69  36  29 SW8       30.12R
EL PASO        MOSUNNY   82  55  39 SW12      30.06R
$$


........................KEY........................
SKY/WX - SKY CONDITION/WEATHER
TMP    - TEMPERATURE IN FAHRENHEIT
DP     - DEW POINT IN FAHRENHEIT
RH     - RELATIVE HUMIDITY IN PERCENT
WIND   - DIRECTION AND SPEED IN MILES PER HOUR (MPH)
VRB    - VARIABLE WIND DIRECTION
PRES   - MEAN SEA LEVEL PRESSURE IN INCHES OF MERCURY
         F - FALLING PRESSURE   R - RISING PRESSURE
         S - STEADY PRESSURE
VSB    - VISIBILITY IN MILES
HX     - HEAT INDEX IN FAHRENHEIT
WCI    - WIND CHILL INDEX IN FAHRENHEIT
TC     - TEMPERATURE IN CELSIUS WHICH IS ALSO KNOWN AS
         TEMPERATURE IN CENTIGRADE
AFB    - AIR FORCE BASE
         LUKE AFB IS LUKE AIR FORCE BASE
         DAVIS-MONTHAN IS DAVIS-MONTHAN AIR FORCE BASE
NAS    - NAVAL AIR STATION
         EL CENTRO NAS IS EL CENTRO NAVAL AIR STATION
N/A    - NOT AVAILABLE




USA.gov is the U.S. government's official web portal to all federal, state and local government web resources and services.